| time (UTC) | temp F | wind direction | speed MPH | gust MPH | rain 1hr in | rain 24hr in | rain mn in | humidity % | barometer mb |
| 20260502200105 | 44 | 194 | 2.0 | 3.0 | 0.01 | 0.01 | 0.01 | 81 | 1024.6 |
| 20260502195055 | 45 | 342 | 4.0 | 10.0 | 0.01 | 0.01 | 0.01 | 79 | 1024.6 |
| 20260502194105 | 45 | 257 | 3.0 | 8.0 | 0.01 | 0.01 | 0.01 | 77 | 1024.7 |
| 20260502193056 | 44 | 324 | 3.0 | 11.0 | 0.01 | 0.01 | 0.01 | 80 | 1024.6 |
| 20260502192025 | 45 | 340 | 4.0 | 8.0 | 0.01 | 0.01 | 0.01 | 82 | 1024.4 |
| 20260502191116 | 45 | 312 | 2.0 | 6.0 | 0.01 | 0.01 | 0.01 | 78 | 1024.6 |
| 20260502190106 | 48 | 238 | 5.0 | 10.0 | 0.00 | 0.00 | 0.00 | 68 | 1024.4 |
| 20260502185056 | 50 | 227 | 2.0 | 4.0 | 0.00 | 0.00 | 0.00 | 60 | 1024.4 |
| 20260502184046 | 51 | 190 | 4.0 | 6.0 | 0.00 | 0.00 | 0.00 | 59 | 1024.5 |
| 20260502183037 | 51 | 46 | 3.0 | 7.0 | 0.00 | 0.00 | 0.00 | 59 | 1024.6 |
| 20260502182026 | 50 | 233 | 3.0 | 7.0 | 0.00 | 0.00 | 0.00 | 62 | 1024.6 |
| 20260502181016 | 51 | 183 | 3.0 | 6.0 | 0.00 | 0.00 | 0.00 | 61 | 1024.7 |
| 20260502180107 | 51 | 229 | 3.0 | 9.0 | 0.00 | 0.00 | 0.00 | 63 | 1024.7 |
| 20260502170108 | 48 | 4 | 4.0 | 8.0 | 0.00 | 0.00 | 0.00 | 70 | 1025.1 |
| 20260502164048 | 45 | 5 | 2.0 | 5.0 | 0.00 | 0.00 | 0.00 | 74 | 1025.1 |
| 20260502163038 | 46 | 178 | 2.0 | 4.0 | 0.00 | 0.00 | 0.00 | 74 | 1025.1 |
| 20260502162028 | 45 | 182 | 1.0 | 4.0 | 0.00 | 0.00 | 0.00 | 76 | 1025.0 |
| 20260502161038 | 45 | 171 | 3.0 | 5.0 | 0.00 | 0.00 | 0.00 | 78 | 1025.0 |
| 20260502160129 | 45 | 26 | 3.0 | 6.0 | 0.00 | 0.00 | 0.00 | 81 | 1024.9 |
| 20260502152029 | 41 | 26 | 4.0 | 6.0 | 0.00 | 0.00 | 0.00 | 88 | 1025.0 |
| 20260502151019 | 41 | 35 | 4.0 | 6.0 | 0.00 | 0.00 | 0.00 | 88 | 1024.9 |
| 20260502150110 | 41 | 34 | 3.0 | 6.0 | 0.00 | 0.00 | 0.00 | 86 | 1024.8 |
| 20260502140110 | 39 | 46 | 3.0 | 7.0 | 0.00 | 0.00 | 0.00 | 92 | 1024.7 |
| 20260502130111 | 38 | 32 | 2.0 | 4.0 | 0.00 | 0.00 | 0.00 | 96 | 1024.2 |
| 20260502123042 | 38 | 34 | 2.0 | 5.0 | 0.00 | 0.00 | 0.00 | 96 | 1023.8 |
| 20260502122032 | 38 | 47 | 3.0 | 4.0 | 0.00 | 0.00 | 0.00 | 96 | 1023.5 |
| 20260502121022 | 38 | 18 | 3.0 | 6.0 | 0.00 | 0.00 | 0.00 | 96 | 1023.6 |
| 20260502120113 | 38 | 28 | 3.0 | 6.0 | 0.00 | 0.00 | 0.00 | 96 | 1023.6 |
| 20260502115103 | 38 | 31 | 3.0 | 7.0 | 0.00 | 0.00 | 0.00 | 96 | 1023.4 |
| 20260502114052 | 38 | 61 | 2.0 | 5.0 | 0.00 | 0.00 | 0.00 | 96 | 1023.4 |
| 20260502113042 | 38 | 151 | 2.0 | 4.0 | 0.00 | 0.00 | 0.00 | 96 | 1023.3 |
| 20260502112052 | 38 | 42 | 2.0 | 4.0 | 0.00 | 0.00 | 0.00 | 96 | 1023.4 |
| 20260502111022 | 38 | 23 | 3.0 | 6.0 | 0.00 | 0.00 | 0.00 | 96 | 1023.3 |
| 20260502110113 | 38 | 30 | 2.0 | 4.0 | 0.00 | 0.00 | 0.00 | 96 | 1023.4 |
| 20260502105104 | 38 | 45 | 2.0 | 5.0 | 0.00 | 0.00 | 0.00 | 96 | 1023.3 |
| 20260502104054 | 38 | 26 | 2.0 | 5.0 | 0.00 | 0.00 | 0.00 | 96 | 1023.2 |
| 20260502103044 | 38 | 9 | 2.0 | 6.0 | 0.00 | 0.00 | 0.00 | 96 | 1023.2 |
| 20260502102034 | 38 | 83 | 1.0 | 4.0 | 0.00 | 0.00 | 0.00 | 96 | 1023.4 |
| 20260502101024 | 38 | 181 | 3.0 | 4.0 | 0.00 | 0.00 | 0.00 | 96 | 1023.5 |
| 20260502100115 | 38 | 122 | 0.0 | 5.0 | 0.00 | 0.00 | 0.00 | 96 | 1023.3 |
| 20260502091025 | 37 | 113 | 3.0 | 6.0 | 0.00 | 0.00 | 0.00 | 95 | 1023.2 |
| 20260502090116 | 37 | 151 | 3.0 | 6.0 | 0.00 | 0.00 | 0.00 | 95 | 1023.1 |
| 20260502071027 | 37 | 20 | 1.0 | 2.0 | 0.00 | 0.00 | 0.00 | 97 | 1023.3 |
| 20260502070017 | 37 | 136 | 1.0 | 3.0 | 0.00 | 0.00 | 0.00 | 97 | 1023.4 |
| 20260502065108 | 37 | 52 | 1.0 | 2.0 | 0.00 | 0.00 | 0.00 | 97 | 1023.3 |
| 20260502064058 | 37 | 62 | 1.0 | 4.0 | 0.00 | 0.00 | 0.00 | 97 | 1023.3 |
| 20260502063048 | 37 | 34 | 3.0 | 7.0 | 0.00 | 0.00 | 0.00 | 97 | 1023.4 |
| 20260502062038 | 37 | 51 | 2.0 | 4.0 | 0.00 | 0.00 | 0.00 | 97 | 1023.4 |
| 20260502061533 | 37 | 33 | 1.0 | 3.0 | 0.00 | 0.00 | 0.00 | 97 | 1023.4 |
| 20260502060543 | 37 | 68 | 1.0 | 2.0 | 0.00 | 0.00 | 0.00 | 97 | 1023.3 |
| 20260502055654 | 37 | 39 | 2.0 | 4.0 | 0.00 | 0.00 | 0.00 | 97 | 1023.5 |
| 20260502054604 | 0 | 0.0 | 0.0 | 0.00 | 0.00 | 0.00 | |||
| 20260502054059 | 0 | 0.0 | 0.0 | 0.00 | 0.00 | 0.00 | |||
| 20260502051028 | 37 | 37 | 2.0 | 3.0 | 0.00 | 0.00 | 0.00 | 98 | 1023.4 |
| 20260502050523 | 37 | 38 | 2.0 | 3.0 | 0.00 | 0.00 | 0.00 | 98 |